Location: Cosy Dell
(34.2789°N, 117.4537°W)
Time: 14:15:42
(UTC+00:00)

N. Korean satellite - Visible Passes

Search period start: 23 September 2020 00:00
Search period end: 03 October 2020 00:00
Orbit: 455 x 503 km, 97.2° (Epoch: 22 September)

Date Brightness Start Highest point End Pass type
(mag) Time Alt. Az. Time Alt. Az. Time Alt. Az.
23 Sep 9.7 12:34:22 10° NE 12:37:00 19° E 12:39:35 10° SE visible
25 Sep 6.8 13:14:47 10° NNE 13:18:25 74° E 13:21:57 10° S visible
26 Sep 8.8 12:49:09 10° NE 12:52:21 30° E 12:55:30 10° SSE visible
27 Sep 9.9 12:24:21 10° ENE 12:26:12 13° E 12:28:01 10° SE visible
29 Sep 7.6 13:04:09 10° NNE 13:07:39 50° E 13:11:04 10° S visible
30 Sep 9.4 12:38:45 10° NE 12:41:33 21° E 12:44:17 10° SSE visible
02 Oct 6.6 13:19:19 10° NNE 13:22:53 88° E 13:26:23 10° SSW visible
